Regional Weather Roundup
Issued by NWS

Home | Current Version | Previous Version | Text Only | Print | Product List | Glossary Off
Versions: 1 2 3 4 5 6 7 8 9 10 11 12 13 14 15 16 17 18 19 20 21 22 23 24 25 26 27 28 29 30 31 32 33 34 35 36 37 38 39 40 41 42 43 44 45 46 47 48 49 50

000
ASUS45 KBOU 211607
RWRCO

WEATHER ROUNDUP FOR COLORADO
NATIONAL WEATHER SERVICE DENVER/BOULDER CO
1000 AM MDT MON JUL 21 2014

NOTE: "FAIR" INDICATES FEW OR NO CLOUDS BELOW 12000 FEET WITH NO
SIGNIFICANT WEATHER AND/OR OBSTRUCTIONS TO VISIBILITY.

COZ001>005-013-030-031-211700-
...NORTHWEST COLORADO...

CITY           SKY/WX    TMP DP  RH WIND       PRES   REMARKS
CRAIG          SUNNY     73  50  44 N5        30.26S
HAYDEN         SUNNY     72  45  37 E8        30.29S
MEEKER         SUNNY     73  47  39 CALM      30.27F
MOUNT WERNER     N/A    N/A N/A N/A MISG        N/A
STEAMBOAT SPGS SUNNY     68  46  45 CALM      30.31S
WALDEN         SUNNY     70  39  32 S13       30.38S
$$

COZ006>008-011-211700-
...WEST CENTRAL VALLEYS...

CITY           SKY/WX    TMP DP  RH WIND       PRES   REMARKS
GRAND JUNCTION MOSUNNY   79  46  31 SE9       30.19R
MONTROSE       PTSUNNY   74  50  42 N7        30.27S
EAGLE          MOSUNNY   64  46  52 CALM      30.37S
RIFLE          MOSUNNY   73  47  39 E3        30.24F
DELTA          PTSUNNY   77  47  35 CALM      30.24S
NUCLA          PTSUNNY   77  41  27 MISG        N/A
$$

COZ017>023-064>068-211700-
...SOUTHWEST COLORADO...

CITY           SKY/WX    TMP DP  RH WIND       PRES   REMARKS
DURANGO        PTSUNNY   76  42  29 SW5       30.35R
CORTEZ         SUNNY     79  35  20 S6        30.30S
PAGOSA SPRINGS PTSUNNY   71  42  34 CALM      30.43S
TELLURIDE      PTSUNNY   72  36  26 CALM      30.51F
WOLF CREEK PAS NOT AVBL
$$

COZ009-010-012-014-032>034-037-058>063-211700-
...CENTRAL COLORADO...

CITY           SKY/WX    TMP DP  RH WIND       PRES   REMARKS
ASPEN          PTSUNNY   66  47  50 CALM      30.40R
BUENA VISTA    PTSUNNY   66  44  44 CALM      30.44R
COPPER MTN     PTSUNNY   59  32  36 SW10G21   30.74R
BERTHOUD PASS  FAIR      50  36  57 W21G35    30.75R
COTTONWOOD PAS PTSUNNY   64  39  39 CALM      30.57S
GUNNISON       MOSUNNY   61  45  55 CALM      30.47F
KREMMLING      MOSUNNY   61  45  55 CALM      30.40F
LEADVILLE      PTSUNNY   60  46  59 CALM      30.56S
MONARCH PASS   PTSUNNY   54  34  47 W18       30.83S
SALIDA         PTSUNNY   66  47  50 N3        30.48S
SUNLIGHT       MOSUNNY   63  41  45 CALM      30.65R
WILKERSON PASS NOT AVBL
$$

COZ069>075-211700-
...SAN LUIS VALLEY/SANGRE DE CRISTO MOUNTAINS...

CITY           SKY/WX    TMP DP  RH WIND       PRES   REMARKS
ALAMOSA        PTSUNNY   66  52  60 NW3       30.41S
LA VETA PASS   CLOUDY    59  43  55 SW8G16    30.58S
SAGUACHE       PTSUNNY   64  45  48 CALM      30.45S
$$

COZ035-036-038>040-211700-
...NORTHERN COLORADO FRONT RANGE...

CITY           SKY/WX    TMP DP  RH WIND       PRES   REMARKS
DENVER INTL AP PTSUNNY   85  47  26 SW10      30.16R
DMNS CITY PARK   N/A     82  48  30 S5        30.15F
AURORA         PTSUNNY   81  48  31 SW12      30.19S
FRONT RANGE AP NOT AVBL
ERIE MUNI ARPT PTSUNNY   86  46  24 CALM      30.13S
BOULDER MUN AP PTSUNNY   86  43  22 CALM      30.14S
CENTENNIAL     PTSUNNY   82  44  26 VRB6      30.21S
BROOMFIELD     PTSUNNY   88  45  22 S9        30.19R
FORT COLLINS   PTSUNNY   82  54  36 CALM      30.11F
LONGMONT       PTSUNNY   87  55  33 NE3       30.14S
$$

COZ041-046-047-076>085-087-088-211700-
...PIKES PEAK/PALMER DIVIDE AND SOUTHERN FOOTHILLS...

CITY           SKY/WX    TMP DP  RH WIND       PRES   REMARKS
COLO. SPRINGS  CLOUDY    82  48  30 NW5       30.24S
A. F. ACADEMY  CLOUDY    77  49  37 N10       30.26F
ELLICOTT       CLOUDY    84  45  25 E3        30.22S
FALCON         CLOUDY    81  43  25 NW9G20    30.30S
FORT CARSON    CLOUDY    78  52  39 VRB1      30.21S
LIMON          PTSUNNY   87  41  19 NW5       30.17
MONUMENT HILL  PTSUNNY   77  43  29 SW5       30.30F
TRINIDAD       PTSUNNY   83  45  26 S3        30.21S
$$

COZ042>045-048>051-090-091-211700-
...NORTHEAST COLORADO...

CITY           SKY/WX    TMP DP  RH WIND       PRES   REMARKS
GREELEY ARPT   PTSUNNY   81  57  44 S9        30.11S
AKRON          PTSUNNY   86  48  26 W8        30.10S
BURLINGTON     CLOUDY    86  58  38 CALM      30.07S
WRAY             N/A     95  48  20 NW13      30.02S
STERLING       PTSUNNY   82  64  54 SW6       30.04S
HOLYOKE        PTSUNNY   95  50  21 NW6       30.02S
FORT MORGAN    PTSUNNY   83  47  27 W8        30.10S
$$

COZ086-089-092>099-211700-
...SOUTHEAST COLORADO...

CITY           SKY/WX    TMP DP  RH WIND       PRES   REMARKS
PUEBLO         CLOUDY    79  52  38 NW9       30.12S
LA JUNTA       SUNNY     84  56  38 W10       30.08R
LAMAR          MOSUNNY   86  54  33 W9        30.02S
SPRINGFIELD      N/A     89  52  28 W5        30.09S
$$


USA.gov is the U.S. government's official web portal to all federal, state and local government web resources and services.